Weather History for Manteo, NC

Change the Weather History Date:

Thursday, February 7, 2013

  Actual Average Record
Temperature  
Mean Temperature 52 °F -  
Max Temperature 58 °F 49 °F 68 °F (2008)
Min Temperature 47 °F 36 °F 19 °F (1977)
Degree Days  
Heating Degree Days 12    
Growing Degree Days 2 (Base 50)    
Moisture  
Dew Point 43 °F    
Average Humidity 70    
Maximum Humidity 76    
Minimum Humidity 59    
Precipitation  
Precipitation 0.00 in - - ()
Sea Level Pressure  
Sea Level Pressure 30.25 in    
Wind  
Wind Speed 12 mph (ENE)    
Max Wind Speed 18 mph    
Max Gust Speed 25 mph    
Visibility 10 miles    
Events      
Averages and records for this station are not official NWS values.
T = Trace of Precipitation, MM = Missing Value Source: NWS Daily Summary

Daily Weather History Graph

Daily Weather History Graph

Search for Another Location

Airport:

Trip Planner

Search our weather history database for the weather conditions in past years. The results will help you decide how hot, cold, wet, or windy it might be!

Date:

Astronomy

Feb. 07, 2013 Rise Set
Actual Time 6:57 AM EST 5:36 PM EST
Civil Twilight 6:31 AM EST 6:03 PM EST
Nautical Twilight 6:00 AM EST 6:33 PM EST
Astronomical Twilight 5:31 AM EST 7:03 PM EST
Moon 4:32 AM EST (2/7) 3:00 PM EST (2/7)
Length of Visible Light 11h 31m
Length of Day
10h 38m
Waning Crescent, 9% of the Moon is Illuminated
Feb 7
Waning Crescent
Feb 10
New
Feb 17
First Quarter
Feb 25
Full
Mar 4
Last Quarter

Hourly Weather History & Observations

Time (EST) Temp. Dew Point Humidity Pressure Visibility Wind Dir Wind Speed Gust Speed Precip Events Conditions
12:15 AM 48.2 °F 41.0 °F 76% 30.30 in 10.0 mi ENE 8.1 mph - N/A   Scattered Clouds
12:35 AM 48.2 °F 40.8 °F 76% 30.30 in 10.0 mi East 8.1 mph - N/A   Clear
12:55 AM 48.6 °F 40.1 °F 73% 30.30 in 10.0 mi East 9.2 mph - N/A   Clear
1:15 AM 48.2 °F 40.3 °F 74% 30.31 in 10.0 mi East 9.2 mph - N/A   Clear
1:55 AM 48.2 °F 40.3 °F 74% 30.33 in 10.0 mi East 10.4 mph - N/A   Clear
2:15 AM 48.0 °F 40.1 °F 74% 30.32 in 10.0 mi East 8.1 mph - N/A   Clear
2:35 AM 48.2 °F 40.1 °F 74% 30.31 in 10.0 mi East 9.2 mph - N/A   Clear
2:55 AM 48.2 °F 40.1 °F 74% 30.30 in 10.0 mi ENE 10.4 mph - N/A   Clear
3:15 AM 47.8 °F 40.1 °F 75% 30.30 in 10.0 mi East 10.4 mph - N/A   Clear
3:35 AM 47.7 °F 40.1 °F 75% 30.29 in 10.0 mi ENE 10.4 mph 16.1 mph N/A   Clear
3:55 AM 48.0 °F 39.9 °F 74% 30.30 in 10.0 mi ENE 11.5 mph - N/A   Clear
4:15 AM 48.0 °F 40.3 °F 75% 30.30 in 10.0 mi ENE 11.5 mph - N/A   Clear
4:35 AM 48.4 °F 40.1 °F 73% 30.31 in 10.0 mi East 10.4 mph - N/A   Clear
4:55 AM 48.2 °F 39.6 °F 72% 30.30 in 10.0 mi ENE 11.5 mph - N/A   Clear
5:15 AM 48.2 °F 40.1 °F 74% 30.31 in 10.0 mi ENE 11.5 mph - N/A   Clear
5:35 AM 48.2 °F 39.9 °F 73% 30.32 in 10.0 mi ENE 9.2 mph - N/A   Clear
5:55 AM 48.2 °F 40.3 °F 74% 30.32 in 10.0 mi ENE 10.4 mph - N/A   Clear
6:15 AM 48.4 °F 40.3 °F 74% 30.32 in 10.0 mi ENE 11.5 mph - N/A   Clear
6:55 AM 48.6 °F 40.3 °F 73% 30.32 in 10.0 mi ENE 11.5 mph - N/A   Clear
7:15 AM 48.7 °F 40.6 °F 74% 30.32 in 10.0 mi East 12.7 mph - N/A   Clear
7:35 AM 49.3 °F 41.0 °F 73% 30.33 in 10.0 mi East 11.5 mph 16.1 mph N/A   Clear
7:55 AM 50.2 °F 41.0 °F 71% 30.33 in 10.0 mi East 13.8 mph 18.4 mph N/A   Clear
8:15 AM 50.9 °F 41.4 °F 70% 30.34 in 10.0 mi ENE 12.7 mph - N/A   Clear
8:35 AM 51.3 °F 41.2 °F 68% 30.34 in 10.0 mi ENE 15.0 mph 18.4 mph N/A   Clear
8:55 AM 51.8 °F 41.4 °F 68% 30.34 in 10.0 mi ENE 13.8 mph 18.4 mph N/A   Clear
9:15 AM 52.3 °F 41.9 °F 68% 30.34 in 10.0 mi ENE 16.1 mph - N/A   Clear
9:35 AM 52.9 °F 41.2 °F 64% 30.34 in 10.0 mi East 13.8 mph 21.9 mph N/A   Clear
9:55 AM 53.6 °F 41.9 °F 65% 30.34 in 10.0 mi East 15.0 mph 23.0 mph N/A   Clear
10:15 AM 53.6 °F 41.7 °F 64% 30.34 in 10.0 mi ENE 16.1 mph 21.9 mph N/A   Clear
10:35 AM 54.1 °F 41.9 °F 63% 30.35 in 10.0 mi ENE 15.0 mph - N/A   Clear
10:55 AM 54.3 °F 41.9 °F 63% 30.35 in 10.0 mi ENE 16.1 mph 20.7 mph N/A   Clear
11:15 AM 54.0 °F 42.4 °F 65% 30.35 in 10.0 mi ENE 16.1 mph 21.9 mph N/A   Clear
11:35 AM 55.0 °F 43.0 °F 64% 30.33 in 10.0 mi ENE 16.1 mph 21.9 mph N/A   Clear
11:55 AM 54.9 °F 43.2 °F 65% 30.32 in 10.0 mi ENE 18.4 mph 25.3 mph N/A   Clear
12:15 PM 55.6 °F 42.4 °F 61% 30.30 in 10.0 mi ENE 16.1 mph - N/A   Clear
12:35 PM 56.3 °F 42.3 °F 59% 30.30 in 10.0 mi ENE 15.0 mph 24.2 mph N/A   Clear
12:55 PM 56.5 °F 43.0 °F 61% 30.29 in 10.0 mi ENE 18.4 mph 24.2 mph N/A   Clear
1:15 PM 55.4 °F 43.3 °F 64% 30.28 in 10.0 mi ENE 17.3 mph 24.2 mph N/A   Clear
1:35 PM 54.9 °F 43.3 °F 65% 30.27 in 10.0 mi ENE 18.4 mph 23.0 mph N/A   Scattered Clouds
1:55 PM 54.9 °F 43.0 °F 64% 30.27 in 10.0 mi East 17.3 mph 21.9 mph N/A   Mostly Cloudy
2:15 PM 54.1 °F 42.3 °F 64% 30.26 in 10.0 mi East 17.3 mph 23.0 mph N/A   Mostly Cloudy
2:35 PM 54.0 °F 42.8 °F 66% 30.25 in 10.0 mi East 16.1 mph 21.9 mph N/A   Mostly Cloudy
2:55 PM 53.8 °F 42.8 °F 66% 30.24 in 10.0 mi ENE 16.1 mph 23.0 mph N/A   Overcast
3:15 PM 53.6 °F 43.2 °F 68% 30.25 in 10.0 mi ENE 17.3 mph 21.9 mph N/A   Overcast
3:35 PM 53.2 °F 42.8 °F 68% 30.24 in 10.0 mi ENE 16.1 mph 21.9 mph N/A   Mostly Cloudy
3:55 PM 53.1 °F 43.5 °F 70% 30.23 in 10.0 mi ENE 17.3 mph - N/A   Scattered Clouds
4:15 PM 52.9 °F 43.7 °F 71% 30.23 in 10.0 mi ENE 16.1 mph 25.3 mph N/A   Clear
4:35 PM 52.9 °F 44.2 °F 72% 30.23 in 10.0 mi East 16.1 mph 21.9 mph N/A   Scattered Clouds
4:55 PM 53.1 °F 44.6 °F 73% 30.22 in 10.0 mi ENE 16.1 mph 21.9 mph N/A   Mostly Cloudy
5:15 PM 53.2 °F 44.8 °F 73% 30.22 in 10.0 mi ENE 15.0 mph 19.6 mph N/A   Mostly Cloudy
5:35 PM 53.8 °F 45.0 °F 72% 30.21 in 10.0 mi ENE 17.3 mph 21.9 mph N/A   Scattered Clouds
5:55 PM 53.6 °F 45.5 °F 74% 30.20 in 10.0 mi East 16.1 mph 23.0 mph N/A   Clear
6:15 PM 54.1 °F 45.7 °F 73% 30.20 in 10.0 mi East 13.8 mph 20.7 mph N/A   Clear
6:35 PM 54.7 °F 45.9 °F 72% 30.20 in 10.0 mi East 13.8 mph - N/A   Scattered Clouds
6:55 PM 54.9 °F 46.0 °F 72% 30.19 in 10.0 mi ENE 12.7 mph 18.4 mph N/A   Mostly Cloudy
7:15 PM 55.0 °F 46.4 °F 73% 30.19 in 10.0 mi ENE 12.7 mph - N/A   Overcast
7:35 PM 55.4 °F 46.6 °F 72% 30.19 in 10.0 mi ENE 13.8 mph 19.6 mph N/A   Overcast
7:55 PM 55.4 °F 46.8 °F 73% 30.18 in 10.0 mi ENE 12.7 mph 19.6 mph N/A   Overcast
8:15 PM 55.6 °F 46.6 °F 72% 30.16 in 10.0 mi East 13.8 mph - N/A   Overcast
8:35 PM 56.3 °F 46.6 °F 70% 30.16 in 10.0 mi East 15.0 mph 20.7 mph N/A   Overcast
8:55 PM 56.3 °F 46.6 °F 70% 30.14 in 10.0 mi East 12.7 mph - N/A   Overcast
9:15 PM 56.7 °F 47.3 °F 71% 30.13 in 10.0 mi East 11.5 mph - N/A   Overcast
9:35 PM 57.2 °F 47.5 °F 70% 30.12 in 10.0 mi East 13.8 mph 17.3 mph N/A   Overcast
9:55 PM 57.7 °F 47.7 °F 69% 30.12 in 10.0 mi East 12.7 mph 18.4 mph N/A   Overcast
10:15 PM 57.7 °F 46.8 °F 67% 30.11 in 10.0 mi East 12.7 mph 18.4 mph N/A   Overcast
10:35 PM 58.1 °F 46.0 °F 64% 30.09 in 10.0 mi East 15.0 mph 20.7 mph N/A   Overcast
10:55 PM 57.6 °F 46.0 °F 65% 30.08 in 10.0 mi ESE 15.0 mph 21.9 mph N/A   Light Drizzle
11:15 PM 58.1 °F 46.4 °F 65% 30.05 in 10.0 mi East 16.1 mph 21.9 mph N/A   Overcast
11:35 PM 58.1 °F 46.0 °F 64% 30.05 in 10.0 mi East 12.7 mph 21.9 mph N/A   Overcast
11:55 PM 57.7 °F 46.4 °F 66% 30.04 in 10.0 mi ESE 16.1 mph 23.0 mph N/A   Light Drizzle